Location: Bednik
(45.3500°N, 16.3833°E)
Time: 05:28:20
(UTC+00:00)

Thor Agena Rocket - Pass Details

Date: 08 August 2020
Orbit: 760 x 807 km, 99.0° (Epoch: 19 September)

Event Time Altitude Azimuth Distance (km) Brightness Sun altitude
Rises 21:09:56 0° 22° (NNE) 3,238 7.3 -23.9°
Reaches altitude 10° 21:12:25 10° 31° (NNE) 2,312 6.3 -24.2°
Enters shadow 21:16:24 35° 79° (E) 1,237 4.4 -24.5°
